Weather History for Whiteman AFB, MO

Change the Weather History Date:

Wednesday, November 23, 2011

  Actual Average Record
Temperature  
Mean Temperature 48 °F -  
Max Temperature 55 °F 50 °F 64 °F (2001)
Min Temperature 40 °F 34 °F 12 °F (2013)
Degree Days  
Heating Degree Days 17    
Moisture  
Dew Point 42 °F    
Average Humidity 90    
Maximum Humidity 100    
Minimum Humidity 61    
Precipitation  
Precipitation 0.00 in - - ()
Sea Level Pressure  
Sea Level Pressure 30.24 in    
Wind  
Wind Speed 6 mph (SSW)    
Max Wind Speed 10 mph    
Max Gust Speed -    
Visibility 9 miles    
Events      
Averages and records for this station are not official NWS values.
T = Trace of Precipitation, MM = Missing Value Source: NWS Daily Summary

Daily Weather History Graph

Daily Weather History Graph

Search for Another Location

Airport:

Trip Planner

Search our weather history database for the weather conditions in past years. The results will help you decide how hot, cold, wet, or windy it might be!

Date:

Astronomy

Nov. 23, 2011 Rise Set
Actual Time 7:04 AM CST 4:55 PM CST
Civil Twilight 6:35 AM CST 5:24 PM CST
Nautical Twilight 6:03 AM CST 5:57 PM CST
Astronomical Twilight 5:31 AM CST 6:29 PM CST
Moon 5:10 AM CST (11/23) 3:37 PM CST (11/23)
Length of Visible Light 10h 48m
Length of Day
9h 50m
Waning Crescent, 3% of the Moon is Illuminated
Nov 23
Waning Crescent
Nov 25
New
Dec 2
First Quarter
Dec 10
Full
Dec 17
Last Quarter

Hourly Weather History & Observations

Time (CST) Temp. Windchill Dew Point Humidity Pressure Visibility Wind Dir Wind Speed Gust Speed Precip Events Conditions
12:55 AM 43.2 °F 38.4 °F 43.0 °F 99% 30.20 in 10.0 mi WNW 8.1 mph - N/A   Overcast
1:55 AM 43.0 °F 41.3 °F 42.8 °F 99% 30.20 in 10.0 mi NW 3.5 mph - N/A   Overcast
2:55 AM 42.6 °F - 42.4 °F 99% 30.20 in 10.0 mi Calm Calm - N/A   Overcast
3:55 AM 42.4 °F 39.6 °F 42.3 °F 99% 30.20 in 10.0 mi WSW 4.6 mph - N/A   Overcast
4:55 AM 42.1 °F 40.2 °F 41.9 °F 99% 30.22 in 8.0 mi West 3.5 mph - N/A   Overcast
5:55 AM 41.7 °F 38.8 °F 41.5 °F 99% 30.24 in 8.0 mi SW 4.6 mph - N/A   Overcast
6:55 AM 41.7 °F 39.8 °F 41.5 °F 99% 30.25 in 3.0 mi WSW 3.5 mph - N/A   Overcast
7:23 AM 41.0 °F 37.1 °F 41.0 °F 100% 30.26 in 5.0 mi WSW 5.8 mph - N/A   Overcast
7:55 AM 41.4 °F 37.6 °F 41.2 °F 99% 30.28 in 5.0 mi SSW 5.8 mph - N/A   Overcast
8:03 AM 41.0 °F 37.1 °F 41.0 °F 100% 30.28 in 7.0 mi SW 5.8 mph - N/A   Overcast
8:24 AM 42.8 °F 38.0 °F 41.0 °F 93% 30.29 in 7.0 mi SW 8.1 mph - N/A   Overcast
8:55 AM 42.4 °F 38.1 °F 42.3 °F 99% 30.28 in 7.0 mi SW 6.9 mph - N/A   Overcast
9:55 AM 43.5 °F - 43.0 °F 98% 30.30 in - North - - N/A   Overcast
9:58 AM 44.6 °F - 42.8 °F 93% 30.29 in - North - - N/A   Overcast
10:04 AM 44.6 °F 41.4 °F 42.8 °F 93% 30.36 in 5.0 mi SW 5.8 mph - N/A   Mostly Cloudy
10:55 AM 46.0 °F 41.9 °F 42.4 °F 87% 30.29 in 10.0 mi SSW 8.1 mph - N/A   Scattered Clouds
11:55 AM 49.6 °F - 42.3 °F 76% 30.26 in 10.0 mi South 6.9 mph - N/A   Clear
12:55 PM 52.2 °F - 42.4 °F 69% 30.23 in 10.0 mi SSW 9.2 mph - N/A   Clear
1:55 PM 54.9 °F - 42.4 °F 63% 30.22 in 10.0 mi SSW 8.1 mph - N/A   Clear
2:55 PM 55.8 °F - 42.6 °F 61% 30.21 in 10.0 mi South 9.2 mph - N/A   Clear
3:55 PM 55.6 °F - 42.8 °F 62% 30.21 in 10.0 mi SSW 6.9 mph - N/A   Clear
4:55 PM 49.3 °F - 42.6 °F 78% 30.22 in 10.0 mi South 5.8 mph - N/A   Clear
5:55 PM 48.6 °F - 42.8 °F 80% 30.21 in 10.0 mi SSE 8.1 mph - N/A   Clear
6:55 PM 47.1 °F - 43.2 °F 86% 30.21 in 10.0 mi SSE 8.1 mph - N/A   Clear
7:55 PM 45.3 °F 41.1 °F 43.9 °F 95% 30.23 in 10.0 mi SSE 8.1 mph - N/A   Clear
8:55 PM 42.4 °F 37.5 °F 42.1 °F 99% 30.24 in 10.0 mi South 8.1 mph - N/A   Clear
9:55 PM 42.3 °F 36.3 °F 42.3 °F 100% 30.23 in 10.0 mi South 10.4 mph - N/A   Clear
10:55 PM 42.1 °F 37.1 °F 42.1 °F 100% 30.22 in 10.0 mi South 8.1 mph - N/A   Clear
11:55 PM 40.6 °F 35.4 °F 40.6 °F 100% 30.23 in 10.0 mi South 8.1 mph - N/A   Clear